CAPE
0 0 0 0 0 0 0 0 0 0 0 0 0 0 0 0 0 0 0 0 2 14 6 69 43 14 4 0 0 0 0 0 0 0 0 0 0 0 0 0 0 1 4
0 0 0 0 0 0 0 0 0 0 0 0 0 0 0 0 0 0 0 0 2 59 57 30 11 5 12 13 2 0 3 4 0 0 0 0 0 0 0 0 0 0 0
0 0 0 0 0 0 0 0 0 0 0 0 0 0 0 0 0 0 0 0 0 1 0 0 0 2 4 6 0 0 15 2 0 0 0 9 1 0 0 0 0 0 0
0 0 0 0 0 0 0 0 0 0 0 0 0 0 0 0 0 0 0 0 0 0 0 0 0 0 0 0 0 0 2 9 5 11 35 1 0 0 0 0 0 0 0
0 0 0 0 0 0 0 0 0 0 0 0 0 0 0 0 0 0 0 0 0 0 0 0 0 0 0 0 0 0 1 9 16 35 32 12 2 0 0 0 2 3 4
0 0 0 0 0 0 0 0 0 0 0 0 0 0 0 0 0 0 0 0 0 0 0 0 0 0 0 0 0 0 0 0 7 13 0 2 2 2 0 1 6 13 14
0 0 0 0 0 0 0 0 0 0 0 0 0 0 0 0 0 0 0 0 0 0 0 0 0 0 0 0 0 0 0 6 8 15 20 27 3 4 12 14 19 22 27
0 0 0 0 0 0 0 0 0 0 0 0 0 0 0 0 0 0 0 0 0 0 0 0 0 0 0 0 0 0 3 8 21 25 13 7 6 19 30 35 34 30 30
0 0 0 0 0 0 0 0 0 0 0 0 0 0 0 0 0 0 0 0 0 0 0 0 0 0 0 0 0 0 3 0 0 5 15 17 23 37 40 31 31 42 32
0 0 0 0 0 0 0 0 0 0 0 0 0 0 0 0 0 0 0 0 0 0 0 0 0 0 0 0 0 0 0 43 12 10 18 15 28 37 35 30 24 32 40
0 0 0 0 0 0 0 0 0 0 0 0 0 0 0 0 0 0 0 0 0 0 0 0 0 0 0 0 0 0 0 0 0 1 20 29 37 41 41 34 25 20 26
0 0 0 0 0 0 0 0 0 0 0 0 0 0 0 0 0 0 0 0 0 0 0 0 0 0 0 0 0 0 0 0 0 0 1 11 24 34 31 17 11 13 22
0 0 0 0 0 0 0 0 0 0 0 0 0 0 0 0 0 0 0 0 0 0 0 0 0 0 0 0 0 0 0 0 0 0 0 1 0 0 0 4 13 26 38
0 0 0 0 0 0 0 0 0 0 0 0 0 0 0 0 0 0 0 0 0 0 0 0 0 0 0 0 0 0 0 0 0 0 0 0 0 9 12 14 21 27 38
0 0 0 0 0 0 0 0 0 0 0 0 0 0 0 0 0 0 0 0 0 0 0 0 0 0 0 0 0 0 0 0 0 0 0 4 16 23 35 29 32 40 40
0 0 0 0 0 0 0 0 0 0 0 0 0 0 0 0 0 0 0 0 0 0 0 0 0 0 0 0 0 0 0 0 0 0 1 7 20 32 28 32 33 34 49
0 0 0 0 0 0 0 0 0 0 0 0 0 0 0 0 0 0 0 0 0 0 0 0 0 0 0 0 0 0 0 0 0 0 1 12 4 0 23 37 27 24 17
0 0 0 0 0 0 0 0 0 0 0 0 0 0 0 0 0 0 0 0 0 0 0 0 0 0 0 0 0 0 0 0 0 0 1 0 0 0 15 7 4 1 6
0 0 0 0 0 0 0 0 0 0 0 0 0 0 0 0 0 0 0 0 0 0 0 0 0 0 0 0 0 0 0 0 0 0 0 0 0 0 2 0 0 0 9
0 0 0 0 0 0 0 0 0 0 0 0 0 0 0 0 0 0 0 0 0 0 0 0 0 0 0 0 0 0 0 0 0 0 0 0 0 0 0 0 0 0 9
0 0 0 0 0 0 0 0 0 0 0 0 0 0 0 0 0 0 0 0 0 0 0 0 0 0 0 0 0 0 0 0 0 0 0 0 0 0 0 0 0 0 4
0 0 0 0 0 0 0 0 0 0 0 0 0 0 0 0 0 0 0 0 0 0 0 0 0 0 0 0 0 0 0 1 1 0 0 0 0 0 0 0 0 0 4
0 0 0 0 0 0 0 0 0 0 0 0 0 0 0 0 0 0 0 0 0 0 0 0 0 0 0 0 0 0 0 0 0 0 0 0 0 0 0 0 0 0 0
0 0 0 0 0 0 0 0 0 0 0 0 0 0 0 0 0 0 0 0 0 0 0 0 0 0 0 0 0 0 14 5 0 0 0 0 0 0 0 0 0 0 1
0 0 0 0 0 0 0 0 0 0 0 0 0 0 0 0 0 0 0 0 0 0 0 0 0 0 0 0 0 0 0 0 0 0 0 0 0 0 0 0 0 0 0
0 0 0 0 0 0 0 0 0 0 0 0 0 0 0 0 0 0 0 0 0 0 0 0 0 0 0 0 0 0 0 0 2 0 0 0 0 0 0 0 0 0 0
CIN
0 0 0 0 0 0 0 0 0 0 0 0 0 0 0 0 0 0 0 0 -26 -25 -9 -0 -0 -0 -0 0 0 0 0 0 0 0 0 0 0 0 0 0 0 0 0
0 0 0 0 0 0 0 0 0 0 0 0 0 0 0 0 0 0 0 0 -27 -13 -1 -0 -0 -0 -0 -0 -0 0 -1 -0 0 0 0 0 0 0 0 0 0 0 0
0 0 0 0 0 0 0 0 0 0 0 0 0 0 0 0 0 0 0 0 0 -3 0 0 0 -0 -0 -0 0 0 -0 -3 0 0 0 -0 -0 0 0 0 0 0 0
0 0 0 0 0 0 0 0 0 0 0 0 0 0 0 0 0 0 0 0 0 0 0 0 0 0 0 0 0 0 -1 -3 -5 -1 0 -0 0 0 0 0 0 0 0
0 0 0 0 0 0 0 0 0 0 0 0 0 0 0 0 0 0 0 0 0 0 0 0 0 0 0 0 0 0 -0 0 -1 -0 -0 -5 -3 0 0 0 -0 0 0
0 0 0 0 0 0 0 0 0 0 0 0 0 0 0 0 0 0 0 0 0 0 0 0 0 0 0 0 0 0 0 -0 -0 -0 0 -0 -0 0 0 0 0 -0 0
0 0 0 0 0 0 0 0 0 0 0 0 0 0 0 0 0 0 0 0 0 0 0 0 0 0 0 0 0 0 0 0 0 0 -1 -0 -0 -0 0 0 0 -0 0
0 0 0 0 0 0 0 0 0 0 0 0 0 0 0 0 0 0 0 0 0 0 0 0 0 0 0 0 0 0 -2 -1 -0 -0 0 -0 -0 -0 -0 0 -0 0 0
0 0 0 0 0 0 0 0 0 0 0 0 0 0 0 0 0 0 0 0 0 0 0 0 0 0 0 0 0 0 -8 0 0 -1 -0 -0 0 -0 0 0 0 0 0
0 0 0 0 0 0 0 0 0 0 0 0 0 0 0 0 0 0 0 0 0 0 0 0 0 0 0 0 0 0 0 -10 -9 -3 -0 -0 0 0 -0 0 0 0 0
0 0 0 0 0 0 0 0 0 0 0 0 0 0 0 0 0 0 0 0 0 0 0 0 0 0 0 0 0 0 0 0 0 -8 -6 -0 0 0 0 0 0 0 0
0 0 0 0 0 0 0 0 0 0 0 0 0 0 0 0 0 0 0 0 0 0 0 0 0 0 0 0 0 0 0 0 0 0 -9 -5 -0 0 0 0 0 0 0
0 0 0 0 0 0 0 0 0 0 0 0 0 0 0 0 0 0 0 0 0 0 0 0 0 0 0 0 0 0 0 0 0 0 0 -4 0 0 0 0 0 0 0
0 0 0 0 0 0 0 0 0 0 0 0 0 0 0 0 0 0 0 0 0 0 0 0 0 0 0 0 0 0 0 0 0 0 0 0 0 0 0 0 0 0 0
0 0 0 0 0 0 0 0 0 0 0 0 0 0 0 0 0 0 0 0 0 0 0 0 0 0 0 0 0 0 0 0 0 0 0 -0 0 -0 -0 0 0 -0 0
0 0 0 0 0 0 0 0 0 0 0 0 0 0 0 0 0 0 0 0 0 0 0 0 0 0 0 0 0 0 0 0 0 0 -0 -0 -0 -0 -0 -0 0 -0 0
0 0 0 0 0 0 0 0 0 0 0 0 0 0 0 0 0 0 0 0 0 0 0 0 0 0 0 0 0 0 0 0 0 0 -0 -0 0 0 0 -0 0 0 0
0 0 0 0 0 0 0 0 0 0 0 0 0 0 0 0 0 0 0 0 0 0 0 0 0 0 0 0 0 0 0 0 0 0 0 0 0 0 0 -0 0 -0 0
0 0 0 0 0 0 0 0 0 0 0 0 0 0 0 0 0 0 0 0 0 0 0 0 0 0 0 0 0 0 0 0 0 0 0 0 0 0 0 -0 0 0 0
0 0 0 0 0 0 0 0 0 0 0 0 0 0 0 0 0 0 0 0 0 0 0 0 0 0 0 0 0 0 0 0 0 0 0 0 0 0 0 0 0 0 0
0 0 0 0 0 0 0 0 0 0 0 0 0 0 0 0 0 0 0 0 0 0 0 0 0 0 0 0 0 0 0 0 0 0 0 0 0 0 0 0 0 0 0
0 0 0 0 0 0 0 0 0 0 0 0 0 0 0 0 0 0 0 0 0 0 0 0 0 0 0 0 0 0 0 -0 -0 0 0 0 0 0 0 0 0 0 -0
0 0 0 0 0 0 0 0 0 0 0 0 0 0 0 0 0 0 0 0 0 0 0 0 0 0 0 0 0 0 0 -0 0 0 0 0 0 0 0 0 0 0 0
0 0 0 0 0 0 0 0 0 0 0 0 0 0 0 0 0 0 0 0 0 0 0 0 0 0 0 0 0 0 -0 -0 0 0 0 0 0 0 0 0 0 0 -5
0 0 0 0 0 0 0 0 0 0 0 0 0 0 0 0 0 0 0 0 0 0 0 0 0 0 0 0 0 0 0 0 -0 0 0 0 0 0 0 0 0 -1 0
0 0 0 0 0 0 0 0 0 0 0 0 0 0 0 0 0 0 0 0 0 0 0 0 0 0 0 0 0 0 0 0 -0 -0 0 0 0 0 0 0 0 0 0
Wind_Speed
4 4 4 5 4 4 4 4 5 5 6 6 5 5 7 6 6 4 3 14 10 8 3 4 5 4 7 8 10 10 10 9 11 11 11 11 12 14 17 18 20 21 22
5 4 4 4 5 4 4 5 4 5 4 4 6 6 6 6 6 6 4 5 13 12 9 7 6 5 6 7 7 7 9 9 9 10 9 9 10 12 15 17 19 20 21
6 5 5 4 4 4 6 4 4 5 5 3 6 5 4 6 6 7 6 5 6 14 17 12 8 9 9 7 6 6 7 7 9 10 8 10 12 13 13 15 18 19 20
6 5 5 5 4 4 4 4 3 3 4 4 2 4 4 5 6 6 6 5 5 6 9 13 10 8 7 6 6 7 9 9 11 11 11 10 11 13 14 15 16 18 20
6 6 5 4 5 4 4 3 3 3 2 2 3 4 4 4 5 5 6 6 7 6 4 10 11 11 8 7 8 9 11 11 13 10 12 13 14 14 15 16 17 18 20
6 6 5 5 4 4 3 3 3 2 2 2 3 5 4 3 4 5 5 5 6 7 6 7 5 5 11 11 11 12 13 14 12 9 10 12 13 14 15 17 18 20 20
6 6 5 5 4 4 3 3 2 3 4 2 3 3 3 3 4 4 4 4 6 5 6 5 4 4 4 11 11 12 14 14 14 13 13 13 13 14 17 19 20 21 22
6 6 6 5 5 4 5 4 3 2 3 4 3 3 3 3 1 3 2 3 3 2 3 5 4 5 4 3 7 12 10 11 12 11 12 13 15 17 19 21 22 22 22
6 6 6 6 6 4 4 3 3 4 3 4 5 3 1 3 2 3 3 2 1 2 4 3 4 4 3 3 6 8 12 9 14 16 15 16 17 18 20 22 23 23 23
6 6 6 6 5 4 5 3 2 2 3 2 2 3 3 3 3 3 3 3 4 3 3 2 3 4 3 4 8 11 12 13 9 12 14 16 18 19 20 24 25 26 26
6 6 6 6 6 4 4 5 4 4 2 3 2 1 1 1 1 2 3 3 3 3 3 3 3 3 5 4 4 6 6 8 10 12 14 17 20 22 23 25 28 29 29
4 5 6 6 5 5 4 4 4 4 3 3 2 3 3 3 3 3 2 4 4 4 2 3 3 4 4 4 6 9 8 10 12 15 18 21 23 25 27 28 29 29 28
2 4 4 4 3 3 4 3 4 4 4 3 4 3 3 3 3 2 2 3 4 3 3 2 4 3 2 3 4 12 12 13 15 18 20 21 23 25 25 25 25 25 25
5 4 5 4 3 3 4 5 2 2 3 3 5 4 3 3 3 3 3 3 3 2 3 5 1 0 3 3 9 19 7 15 17 20 20 22 22 21 23 23 24 24 25
6 7 6 7 5 5 4 5 3 3 4 4 4 4 3 3 3 3 2 3 3 2 3 3 2 2 3 4 8 7 5 15 19 20 20 20 20 21 20 21 23 22 22
8 8 6 6 6 5 5 5 4 3 3 2 3 4 3 3 4 2 3 3 3 3 3 4 4 2 3 5 8 6 6 16 16 17 18 19 20 20 21 20 19 21 21
7 7 6 6 6 5 4 5 4 3 3 3 3 5 6 3 2 2 1 1 2 2 3 3 2 2 3 5 7 5 7 6 5 15 18 18 20 21 20 17 19 18 19
7 8 6 5 5 4 3 6 6 6 6 6 6 5 5 3 4 4 3 4 4 3 3 5 2 3 5 5 6 6 6 7 5 13 19 23 24 22 20 19 18 20 20
7 7 6 6 4 6 5 6 6 6 7 7 7 7 6 6 5 4 4 4 3 2 3 3 4 3 4 4 5 5 6 7 6 17 21 22 20 19 20 21 21 21 19
7 6 5 5 6 6 6 6 6 6 7 6 6 6 5 6 6 6 4 5 3 3 3 3 5 5 4 4 3 4 9 6 9 9 15 14 17 19 21 19 20 20 19
5 4 2 4 5 5 5 7 7 7 7 6 4 3 3 6 9 7 3 5 3 2 3 4 5 3 4 4 6 5 7 8 9 8 7 6 8 8 9 14 15 18 17
3 2 3 5 7 6 11 13 10 8 6 6 6 6 5 7 7 8 9 8 7 4 4 3 3 4 5 4 3 5 6 8 7 2 3 10 6 8 8 7 16 20 19
2 4 5 6 7 7 11 13 13 7 7 7 6 5 5 4 6 5 7 6 6 7 8 4 4 4 3 3 5 7 8 9 8 8 5 10 3 7 7 8 19 19 18
1 5 6 7 6 6 10 11 14 7 6 7 7 7 6 6 6 6 5 5 5 5 5 5 5 5 5 6 5 8 9 9 7 6 3 7 3 8 7 7 15 14 11
5 4 4 6 7 7 8 10 10 6 6 6 5 6 6 6 9 13 6 6 5 6 6 8 8 10 12 14 12 5 6 7 9 7 3 3 3 7 5 7 5 8 12
3 4 5 5 8 7 7 11 9 4 5 4 5 6 11 8 11 13 6 5 5 6 4 4 4 6 7 8 13 5 5 6 8 6 1 3 8 4 4 3 3 3 3
Wind_Direction
113 103 90 86 78 75 77 76 73 73 67 62 47 67 55 42 39 26 8 19 11 352 21 108 96 80 75 66 61 51 45 42 46 34 31 45 35 23 12 7 2 356 352
121 112 108 91 74 67 68 74 73 69 60 59 60 45 52 54 46 36 23 13 31 30 47 64 57 51 66 72 48 39 48 48 24 19 24 33 28 15 5 360 354 349 345
122 115 106 85 87 87 95 80 64 63 54 49 60 57 63 56 50 40 35 28 23 39 45 41 50 52 40 40 24 10 34 16 4 357 1 14 10 8 2 354 346 341 337
118 104 97 89 107 100 93 80 75 71 58 60 64 51 52 60 58 46 41 38 40 37 44 42 57 46 28 8 354 340 341 345 342 341 347 355 354 356 352 347 341 335 328
120 109 106 127 123 103 84 95 61 108 97 50 98 76 62 62 55 55 52 48 46 47 34 26 22 14 354 341 330 323 318 317 319 332 334 334 338 337 338 335 330 328 324
123 118 119 111 99 96 83 77 100 69 115 99 76 75 79 62 57 59 66 62 54 43 31 27 18 1 14 11 351 334 324 315 319 328 314 318 323 326 326 324 323 323 321
137 121 104 111 104 96 106 80 107 64 41 35 87 41 52 45 46 54 66 58 48 36 32 21 24 14 356 353 346 326 318 316 311 308 319 322 321 317 315 316 318 320 319
128 114 118 110 94 96 69 63 77 87 73 9 107 78 356 329 356 46 66 61 36 12 26 34 31 22 4 352 339 349 342 332 320 315 309 307 309 309 311 312 316 314 316
92 99 96 87 73 67 57 38 42 78 112 17 36 124 70 245 340 335 18 30 351 37 18 3 10 3 360 355 347 328 310 298 307 297 298 299 302 306 312 312 309 309 311
98 96 89 86 89 80 61 39 66 89 100 117 10 31 63 136 192 312 321 301 333 356 320 304 320 326 342 330 330 321 315 308 306 297 296 301 307 308 309 308 307 307 306
95 97 96 83 77 78 89 99 92 90 89 133 145 127 38 14 131 160 259 298 337 280 266 255 304 308 314 338 318 305 9 3 347 327 315 311 308 306 306 305 303 302 300
96 92 88 86 96 112 146 151 154 140 145 135 154 164 176 197 215 191 220 258 233 279 268 288 285 302 346 347 352 351 347 344 327 315 309 305 303 303 303 300 298 297 295
120 118 112 92 118 165 160 184 156 166 175 165 177 207 196 206 179 184 171 243 235 267 289 274 268 5 13 358 332 333 329 318 314 307 304 303 304 301 298 296 295 291 293
136 131 109 106 124 180 178 197 205 206 202 210 208 218 212 205 188 174 187 182 284 266 240 243 322 71 354 335 328 322 309 315 318 311 311 306 299 296 295 294 294 292 293
145 153 146 159 165 188 182 190 209 227 202 210 212 221 199 202 179 196 181 182 172 267 269 270 255 263 352 315 306 304 308 314 314 313 304 303 301 295 297 302 299 294 295
157 160 180 152 168 189 182 177 194 210 193 226 218 191 191 210 223 196 178 186 201 193 271 204 246 267 287 304 298 312 296 318 312 311 314 305 305 310 302 299 301 300 299
163 168 171 161 183 199 180 179 181 195 187 201 197 198 217 215 223 219 141 163 185 179 238 283 251 266 280 280 292 290 295 290 280 309 308 309 309 308 300 299 298 300 305
172 167 171 171 187 198 213 196 201 190 193 194 207 207 219 207 216 197 194 206 211 209 216 272 266 274 249 277 277 291 299 302 297 301 303 305 302 297 296 304 303 301 306
169 170 172 185 182 219 216 218 218 213 202 198 196 205 213 206 216 204 209 217 223 234 216 246 279 259 265 268 298 297 292 291 281 302 303 307 309 303 302 298 298 299 296
163 174 188 192 223 223 218 221 213 211 206 199 199 205 219 217 214 215 221 224 212 235 250 259 277 276 256 286 283 312 311 306 306 302 302 296 297 298 303 297 292 296 296
179 165 168 255 255 246 238 221 200 203 201 197 185 199 221 237 226 213 183 211 196 222 256 268 276 270 293 313 319 316 301 308 304 284 285 287 291 293 288 292 289 291 293
95 159 250 256 266 255 242 225 195 189 185 179 194 211 204 237 238 198 209 191 185 202 240 241 250 273 288 288 291 292 294 306 311 248 290 298 299 293 288 281 284 293 287
67 351 293 281 274 270 257 237 203 173 177 188 195 188 213 222 210 202 207 209 229 252 251 226 250 249 267 267 289 298 292 284 280 291 289 294 291 285 288 284 293 298 287
295 254 271 277 274 271 264 242 190 167 173 195 195 192 197 214 212 207 204 226 240 252 257 241 230 255 247 264 252 286 295 298 285 278 249 276 302 290 292 288 301 326 331
252 260 265 278 286 292 277 219 170 168 181 199 203 192 196 213 227 221 198 225 250 262 264 263 275 293 306 310 310 312 305 311 307 302 261 248 283 296 284 282 279 317 347
264 274 283 283 280 280 267 214 187 155 184 202 212 213 221 206 224 218 199 211 243 257 258 274 288 296 299 294 307 295 289 297 306 306 241 309 304 293 298 276 288 298 318